C/2017 K2 ( PanSTARRS )

Japanese version
Home page
Updated on September 11, 2021

---------------------------------------------------------------------

* Profile

Discovery Date May 21, 2017
Magnitude 20.8 mag
Discoverer Pan-STARRS 1 telescope (Haleakala)

* Pictures

* Orbital Elements

Epoch 2022 Dec. 7.0 TT = JDT 2459920.5
T 2022 Dec. 19.67474 TT                                 Rudenko
q   1.7969481            (2000.0)            P               Q
z  -0.0004724      Peri.  236.19722     +0.01818511     +0.04923077
 +/-0.0000006      Node    88.23549     -0.18094741     +0.98245637
e   1.0008488      Incl.   87.56305     -0.98332463     -0.17987719
From 4605 observations 2013 May 12-2021 May 30, mean residual 0".9.

* Finding Charts

* Magnitudes Graph

        m1 = 1.0 + 5 log d + 10.0 log r

---------------------------------------------------------------------

The orbital elements are published on M.P.E.C. 2021-L04.
The charts are made with StellaNavigator Ver.10 (AstroArts).
The magnitudes graphs are made with Comet for Windows.

---------------------------------------------------------------------

Copyright(C) Seiichi Yoshida (comet@aerith.net). All rights reserved.